STARLINK-35721 (67046 NORAD) Tracking and Keplerian Element Data

This shows tracking and keplerian element data for the satellite.

Feedback or suggestion? Click here.




ElementValue
Catalog67046
NameSTARLINK-35721
Epoch Orbit151
Epoch Day354.25003472
Epoch Year2025
RAAN136.2126
Inclination43.0003
Eccentricity0.0001734
Argument of Perigee262.56
Mean Anonmoly355.7449
Mean Motion15.8913636
Decay Rate-0.01421077
L11 67046U 25294S 25354.25003472 -.01421077 00000+0 -54707-2 0 9995
L22 67046 43.0003 136.2126 0001734 262.5600 355.7449 15.89136360 1518



Live tracking and technical data element details for STARLINK-35721 (NORAD 67046). STARLINK-35721 can be tracked NOW for your location showing map with azimuth and elevation plus other details from your city location.







IsCatalogInMostPopularTable: catalog: 67046, numindb: 81
Update: records affected: 1



GetName: 67046 STARLINK-35721

Hit Count: updated at: Thu, 16 Apr 2026 06:03:28 GMT